Hourly Data Report for October 02, 2017

All times are specified in Local Standard Time (LST). Add 1 hour to adjust for Daylight Saving Time where and when it is observed.

BELLA COOLA AIRPORT
BRITISH COLUMBIA

52°23'19.000" N
126°35'13.000" W
36.90 m
1060844
71533
VBD

Download Data

Hourly Data (October 2017)
Hourly Data Report for October 2, 2017
Temp Definition
°C
Dew Point Temp Definition
°C
Rel Hum Definition
%
Wind Dir Definition
10's deg

Wind Spd Definition
km/h
Visibility Definition
km
Stn Press Definition
kPa
Hmdx Definition


Wind Chill Definition


Weather Definition


TIME
00:00 5.8 5.3 96 9 3   102.16     LegendNANA
01:00 8.8 5.5 80 4 5   102.21     LegendNANA
02:00 9.3 4.4 71 3 5   102.25     LegendNANA
03:00 9.1 3.3 67 5 6   102.31     LegendNANA
04:00 8.9 2.8 66 4 10   102.38     LegendNANA
05:00 9.1 1.7 60 8 4   102.43     LegendNANA
06:00 8.6 0.9 59 5 6   102.47     LegendNANA
07:00 8.3 0.6 58 6 4   102.55     LegendNANA
08:00 8.9 0.8 57 6 5   102.59     LegendNANA
09:00 9.0 0.9 57 5 4   102.65     LegendNANA
10:00 12.2 1.0 46 3 3   102.63     LegendNANA
11:00 13.5 -0.3 39 5 5   102.58     LegendNANA
12:00 15.2 0.4 36 4 3   102.52     LegendNANA
13:00 16.5 0.2 33 4 4   102.44     LegendNANA
14:00 17.6 0.5 32 15 3   102.35     LegendNANA
15:00 18.4 0.1 29 15 3   102.31     LegendNANA
16:00 17.8 0.6 32 3 2   102.30     LegendNANA
17:00 15.2 -0.5 34 5 3   102.32     LegendNANA
18:00 10.6 4.9 68 5 6   102.36     LegendNANA
19:00 8.2 3.4 72 0 1   102.41     LegendNANA
20:00 6.3 4.1 86 9 1   102.46     LegendNANA
21:00 5.4 4.0 91 9 2   102.47     LegendNANA
22:00 4.5 3.6 94 7 2   102.47     LegendNANA
23:00 3.4 2.5 94 0 1   102.47     LegendNANA

Notes on Data Quality.

Legend

  • E = Estimated
  • M = Missing
  • NA = Not Available
  • ‡ = Partner data that is not subject to review by the National Climate Archives
Date modified: